[[{"header":{"parameterUnit":"m.s-1","parameterCategory":1,"la1":30.2991,"la2":30.254,"lo1":-89.0895,"lo2":-89.0444,"dy":0.0017,"dx":0.0017,"nx":28,"ny":28,"refTime":"2025-07-05T09:00:00:Z","depth":0,"parameterNumber":2,"parameterNumberName":"U-component_of_WINDS"},"data":[0,0,0,0,0,0,0,0,0,0,0,0,0,0,0,0,0,0,0,0,0,0,0,0,0,0,0,0,0,0,0,0,0,0,0,0,0,0,0,0,0,0,0,0,0,0,0,0,0,0,0,0,0,0,0,0,0,0,0.5099,0.51,0,0.5165,0.5166,0.5167,0.5182,0.5181,0.5181,0.518,0.5249,0.5251,0.5254,0,0,0,0,0,0,0,0,0,0,0,0,0,0.4984,0.4986,0.5099,0.51,0.51,0.5165,0.5166,0.5167,0.5182,0.5181,0.5181,0.518,0.5249,0.5251,0.5254,0,0,0,0,0,0,0,0,0,0,0,0,0,0.5041,0.4987,0.5099,0.5116,0.5118,0.5165,0.5166,0.5167,0.5182,0.5181,0.518,0.518,0.5248,0.5251,0.5254,0.5289,0,0,0.5265,0.5266,0,0,0,0,0,0,0,0,0.5038,0.5045,0.5112,0.5115,0.5117,0.5164,0.5151,0.5208,0.5182,0.5158,0.518,0.5179,0.5222,0.5227,0.5241,0.5293,0.5296,0.5265,0.5267,0.5269,0.527,0,0,0,0,0,0,0,0.5034,0.5042,0.5125,0.5113,0.5116,0.512,0.5127,0.5162,0.5193,0.516,0.5161,0.5169,0.5223,0.5238,0.5243,0.5297,0.5265,0.5268,0.527,0.5271,0.5379,0.538,0,0,0,0,0,0,0.5027,0.5039,0.5123,0.5127,0.5075,0.5122,0.5131,0.515,0.5192,0.5198,0.5169,0.5169,0.5232,0.5239,0.5245,0.5289,0.5269,0.5272,0.5274,0.5378,0.5379,0.538,0,0,0,0,0,0,0.5024,0.5034,0.512,0.5083,0.5095,0.5125,0.5147,0.5152,0.5167,0.52,0.5205,0.5179,0.5232,0.5241,0.5278,0.5291,0.5273,0.5276,0.5377,0.5379,0.538,0.5376,0,0,0,0,0,0,0.5021,0.5033,0.5047,0.5083,0.5096,0.5152,0.5148,0.5153,0.5172,0.5173,0.521,0.5216,0.5232,0.5273,0.5281,0.5296,0.5279,0.5376,0.5378,0.5379,0.5375,0.5377,0.5378,0,0,0,0,0,0.5017,0.5044,0.5048,0.5058,0.5114,0.5153,0.516,0.5178,0.5173,0.5187,0.5208,0.5214,0.5288,0.5277,0.5286,0.5302,0.5376,0.5378,0.5379,0.5374,0.5377,0.5378,0,0,0,0,0,0,0.5008,0.5049,0.5054,0.5093,0.5119,0.5155,0.5173,0.518,0.5209,0.5208,0.523,0.5238,0.5274,0.5292,0.5278,0.5338,0.5332,0.5336,0.5325,0.5327,0.5329,0.5324,0.5282,0,0,0,0,0,0.5011,0.5039,0.5072,0.5104,0.5117,0.5143,0.516,0.5172,0.52,0.5211,0.5235,0.5262,0.5291,0.531,0.5339,0.5378,0.5386,0.5393,0.5395,0.5396,0.5399,0.542,0.5423,0.5386,0.5386,0.5386,0,0,0.5017,0.5042,0.5059,0.5103,0.5125,0.5152,0.5152,0.5182,0.5203,0.5216,0.5252,0.5271,0.5302,0.534,0.5358,0.5356,0.5411,0.5398,0.5399,0.5401,0.5422,0.5425,0.5429,0.5388,0.5387,0.5387,0,0,0.5042,0.5064,0.5092,0.5114,0.5146,0.5163,0.517,0.5205,0.5217,0.5254,0.5264,0.5289,0.5339,0.5361,0.5379,0.5411,0.5417,0.5419,0.5428,0.5448,0.5451,0.5454,0.5465,0.5468,0.5422,0.5422,0.5422,0,0.5045,0.5088,0.5106,0.5135,0.5154,0.5166,0.5195,0.5215,0.5255,0.5268,0.5265,0.5328,0.535,0.5392,0.54,0.5414,0.5422,0.5415,0.5449,0.5452,0.5455,0.5466,0.547,0.5422,0.5422,0.5422,0.5422,0,0.509,0.5119,0.5138,0.5176,0.5197,0.5226,0.5248,0.5267,0.5277,0.5294,0.5331,0.5357,0.5392,0.5403,0.5413,0.5446,0.5444,0.5445,0.544,0.5458,0.5468,0.5473,0.5422,0.5422,0.5422,0.5422,0,0,0.5112,0.5159,0.5166,0.5182,0.5219,0.5242,0.5271,0.5303,0.5319,0.5346,0.5371,0.5412,0.5413,0.5433,0.5445,0.5463,0.5485,0.5462,0.5463,0.5465,0.5523,0.5522,0.5527,0.549,0.549,0.5491,0.5521,0,0.5141,0.5193,0.521,0.5253,0.528,0.5291,0.5316,0.5341,0.5357,0.5383,0.5401,0.543,0.5429,0.5441,0.5459,0.5479,0.5497,0.5477,0.5512,0.5513,0.5504,0.5532,0.5531,0.5558,0.5525,0.5526,0.5526,0,0.5182,0.5209,0.5255,0.5286,0.5298,0.5321,0.5351,0.5375,0.5403,0.5414,0.5436,0.5446,0.5477,0.5469,0.5511,0.5497,0.5512,0.5524,0.5526,0.553,0.5521,0.5537,0.5567,0.5571,0.5533,0.5532,0.5532,0,0.5193,0.5241,0.5274,0.5288,0.5326,0.5342,0.5358,0.5386,0.5404,0.5431,0.5443,0.5473,0.549,0.5513,0.5531,0.5524,0.5571,0.5565,0.558,0.558,0.559,0.5589,0.5623,0.56,0.56,0.56,0.56,0,0.5223,0.525,0.5279,0.5299,0.533,0.5349,0.5379,0.5396,0.542,0.5444,0.5456,0.5478,0.5501,0.5526,0.5541,0.5573,0.558,0.5589,0.5593,0.5588,0.5587,0.5599,0.5597,0.5601,0.5601,0.56,0.56,0,0.524,0.5261,0.5298,0.533,0.5339,0.536,0.5389,0.5409,0.5425,0.5455,0.5463,0.5489,0.5519,0.5539,0.5578,0.5588,0.5622,0.5626,0.5613,0.5614,0.5628,0.5626,0.567,0.5677,0.565,0.565,0.565,0,0.5258,0.5279,0.5314,0.5331,0.5348,0.5374,0.5393,0.5412,0.5431,0.5464,0.548,0.551,0.5536,0.5583,0.5605,0.5634,0.5638,0.5652,0.5643,0.5637,0.5638,0.5637,0.5638,0.5653,0.5653,0.5654,0.5654,0,0.5288,0.5297,0.5323,0.5352,0.5374,0.5398,0.5422,0.5435,0.5459,0.5479,0.5509,0.5529,0.5568,0.5598,0.5629,0.5646,0.5654,0.5656,0.5661,0.5657,0.5648,0.5652,0.5616,0.5655,0.5655,0.5655,0.5655,0.5655,0.5306,0.5325,0.5352,0.538,0.5401,0.5423,0.5443,0.5462,0.5487,0.552,0.553,0.5561,0.5588,0.5631,0.5648,0.5673,0.5672,0.5679,0.5681,0.5682,0.5682,0.5644,0.5679,0.5679,0.5679,0.5679,0.5679,0,0.5335,0.5353,0.5379,0.5412,0.5435,0.5439,0.5466,0.5485,0.5512,0.5536,0.5561,0.5595,0.5624,0.5648,0.5678,0.5693,0.5697,0.57,0.5699,0.5703,0.5682,0.5674,0.5696,0.5696,0.5696,0.5696,0.5696,0.5696,0.5353,0.5385,0.5397,0.5439,0.5457,0.5488,0.5503,0.5523,0.5542,0.558,0.5604,0.5619,0.5643,0.5675,0.5702,0.5708,0.5718,0.572,0.5727,0.5707,0.5705,0.5703,0.5696,0.5722,0.5722,0.5747,0.5747,0.5747]},{"header":{"parameterUnit":"m.s-1","parameterCategory":1,"la1":30.2991,"la2":30.254,"lo1":-89.0895,"lo2":-89.0444,"dy":0.0017,"dx":0.0017,"nx":28,"ny":28,"refTime":"2025-07-05T09:00:00:Z","depth":0,"parameterNumber":3,"parameterNumberName":"V-component_of_WINDS"},"data":[0,0,0,0,0,0,0,0,0,0,0,0,0,0,0,0,0,0,0,0,0,0,0,0,0,0,0,0,0,0,0,0,0,0,0,0,0,0,0,0,0,0,0,0,0,0,0,0,0,0,0,0,0,0,0,0,0,0,3.5593,3.5593,0,3.5567,3.5567,3.5567,3.5521,3.552,3.552,3.5519,3.5493,3.5493,3.5494,0,0,0,0,0,0,0,0,0,0,0,0,0,3.5603,3.5603,3.5593,3.5593,3.5592,3.5567,3.5567,3.5567,3.5521,3.552,3.5519,3.5518,3.5493,3.5493,3.5494,0,0,0,0,0,0,0,0,0,0,0,0,0,3.559,3.5603,3.5593,3.5567,3.5564,3.5567,3.5567,3.5567,3.5522,3.552,3.5519,3.5518,3.5493,3.5493,3.5494,3.5521,0,0,3.5494,3.5494,0,0,0,0,0,0,0,0,3.5591,3.559,3.5571,3.5568,3.5566,3.5546,3.5561,3.5551,3.5522,3.5538,3.5519,3.5517,3.5512,3.5511,3.5509,3.552,3.5519,3.5494,3.5494,3.5494,3.5494,0,0,0,0,0,0,0,3.5592,3.5591,3.5583,3.5571,3.5567,3.5556,3.5553,3.5559,3.5533,3.5536,3.5533,3.553,3.551,3.5509,3.5508,3.5518,3.5494,3.5494,3.5494,3.5495,3.555,3.5552,0,0,0,0,0,0,3.5597,3.5592,3.5584,3.5582,3.5575,3.5557,3.5554,3.5554,3.5532,3.5528,3.5532,3.5528,3.5509,3.5508,3.5507,3.5537,3.5494,3.5495,3.5495,3.5549,3.5551,3.5552,0,0,0,0,0,0,3.5597,3.5596,3.5585,3.5586,3.5584,3.5558,3.5559,3.5554,3.5552,3.5529,3.5524,3.5535,3.5508,3.5506,3.5518,3.5536,3.5495,3.5495,3.5547,3.555,3.5551,3.5599,0,0,0,0,0,0,3.5598,3.5597,3.5607,3.5587,3.5584,3.5596,3.556,3.5554,3.5552,3.5548,3.553,3.5526,3.5507,3.5518,3.5518,3.5535,3.5495,3.5546,3.5548,3.5551,3.5596,3.5602,3.5608,0,0,0,0,0,3.5598,3.5621,3.5607,3.5607,3.5596,3.5597,3.5596,3.5572,3.5554,3.5564,3.5549,3.5527,3.5534,3.5519,3.5519,3.5537,3.5544,3.5548,3.5551,3.5593,3.5601,3.5608,0,0,0,0,0,0,3.5644,3.5618,3.5603,3.562,3.5611,3.5589,3.5601,3.5582,3.5578,3.5574,3.5546,3.5542,3.5557,3.5548,3.5532,3.5562,3.5536,3.5539,3.5568,3.5575,3.5581,3.5583,3.5495,0,0,0,0,0,3.5657,3.566,3.5637,3.5654,3.5651,3.5627,3.5627,3.5609,3.5599,3.5595,3.5581,3.5573,3.5573,3.5573,3.5572,3.5594,3.559,3.5606,3.5612,3.5618,3.5621,3.5632,3.5639,3.5562,3.5562,3.5562,0,0,3.5682,3.5668,3.5672,3.5663,3.5654,3.5659,3.5624,3.563,3.5633,3.5596,3.5606,3.5596,3.5584,3.5601,3.5607,3.5593,3.5641,3.5621,3.5626,3.5626,3.5636,3.5643,3.5649,3.5564,3.5564,3.5564,0,0,3.573,3.572,3.5733,3.5725,3.5712,3.5696,3.57,3.5681,3.5672,3.5682,3.5655,3.5658,3.5658,3.5651,3.5648,3.5693,3.5673,3.5694,3.5727,3.5738,3.5744,3.5749,3.5765,3.5772,3.5697,3.5697,3.5697,0,3.5763,3.5768,3.5743,3.575,3.5748,3.5715,3.5728,3.5722,3.5709,3.5708,3.5693,3.5693,3.5683,3.5697,3.5709,3.5707,3.571,3.5696,3.5745,3.575,3.5754,3.577,3.5776,3.57,3.57,3.5699,3.5699,0,3.581,3.5814,3.5826,3.5815,3.5813,3.5824,3.58,3.5802,3.5785,3.5771,3.5781,3.5767,3.5763,3.5765,3.5749,3.5778,3.5769,3.575,3.5723,3.5765,3.5779,3.5784,3.5704,3.5703,3.5702,3.5701,0,0,3.5887,3.5861,3.5866,3.5861,3.5844,3.5847,3.5856,3.5851,3.5853,3.5846,3.5853,3.5854,3.5836,3.5832,3.5815,3.5824,3.5862,3.5803,3.5803,3.5815,3.5893,3.5908,3.5915,3.5848,3.5849,3.585,3.5894,0,3.5932,3.5946,3.5923,3.5943,3.5946,3.5915,3.5923,3.5914,3.5901,3.5902,3.5887,3.5889,3.5865,3.5862,3.587,3.5856,3.5877,3.5852,3.5855,3.5855,3.5859,3.5923,3.5939,3.5981,3.5899,3.59,3.5901,0,3.5986,3.5981,3.6001,3.5983,3.5984,3.5991,3.5986,3.5987,3.5976,3.5966,3.5962,3.5941,3.5949,3.5922,3.5933,3.5916,3.5916,3.5909,3.591,3.591,3.5881,3.5924,3.5994,3.6001,3.5909,3.5909,3.5908,0,3.6041,3.6039,3.6051,3.6047,3.6026,3.6032,3.6024,3.6012,3.6011,3.6005,3.6004,3.6,3.5998,3.5996,3.5975,3.5957,3.5988,3.596,3.598,3.5981,3.5988,3.5988,3.606,3.5988,3.5988,3.5988,3.5987,0,3.6094,3.6107,3.6075,3.6082,3.6096,3.607,3.6085,3.6074,3.6063,3.6068,3.604,3.6045,3.6016,3.6018,3.6002,3.6013,3.6013,3.6005,3.6,3.6008,3.6009,3.6007,3.6004,3.5989,3.5989,3.5989,3.5988,0,3.6157,3.6136,3.6147,3.6126,3.6122,3.6133,3.6115,3.6121,3.6107,3.6113,3.6113,3.609,3.609,3.6069,3.6065,3.6054,3.6073,3.6063,3.6077,3.6074,3.6096,3.6094,3.6169,3.6178,3.61,3.6101,3.6102,0,3.6193,3.6202,3.6183,3.6184,3.6177,3.6179,3.6177,3.6152,3.6152,3.614,3.6147,3.6146,3.6143,3.6146,3.6129,3.6126,3.6116,3.6143,3.6116,3.6123,3.6117,3.6117,3.6118,3.6149,3.615,3.615,3.6151,0,3.6258,3.6247,3.6245,3.6241,3.624,3.6235,3.6229,3.6231,3.6203,3.6204,3.6205,3.6203,3.6199,3.6198,3.6192,3.6184,3.6163,3.616,3.6164,3.6172,3.618,3.6176,3.6093,3.6158,3.6157,3.6157,3.6157,3.6156,3.6308,3.6315,3.6303,3.6303,3.6295,3.6289,3.6294,3.628,3.628,3.6275,3.6259,3.6263,3.6251,3.6241,3.6235,3.6237,3.6224,3.623,3.6232,3.6234,3.6239,3.6179,3.6236,3.6235,3.6235,3.6235,3.6235,0,3.6372,3.6362,3.6362,3.6354,3.6354,3.6334,3.6326,3.6327,3.633,3.6321,3.6319,3.632,3.6319,3.6302,3.6299,3.6304,3.6294,3.6304,3.6303,3.6302,3.625,3.6247,3.6312,3.6312,3.6312,3.6312,3.6312,3.6312,3.6405,3.6417,3.6404,3.6411,3.6401,3.6404,3.6401,3.6396,3.6389,3.6391,3.639,3.6378,3.6366,3.6362,3.636,3.6355,3.6356,3.6369,3.6361,3.6313,3.6305,3.6298,3.6295,3.6369,3.6369,3.6412,3.6412,3.6413]}]]